Location: Barrio La Estación
(40.5892°N, 4.3617°W)
Time: 05:01:26
(UTC+00:00)

Daily predictions for brighter satellites

Satellite Brightness Start Highest point End
(mag) Time Altitude Azimuth Time Altitude Azimuth Time Altitude Azimuth
SL-16 R/B 4.0 00:06:04 25° NW 00:06:04 25° NW 00:10:15 10° N
USA 238 DEB 4.4 00:07:17 10° NW 00:12:47 52° WNW 00:12:47 52° WNW
USA 238 4.4 00:07:23 10° NW 00:12:54 53° NW 00:12:54 53° NW
Lacrosse 5 4.2 00:35:37 19° NNW 00:36:12 19° NNW 00:39:50 10° NNE
Cosmos 2237 Rocket 3.8 00:59:39 28° ENE 00:59:39 28° ENE 01:02:37 10° NE
Cosmos 2360 Rocket 4.3 01:10:54 17° NW 01:10:54 17° NW 01:14:24 10° N
CZ-2D R/B 4.2 01:07:30 10° NE 01:10:23 19° ENE 01:10:23 19° ENE
COSMOS 2428 3.9 01:13:37 39° N 01:13:37 39° N 01:17:19 10° NNE
Cosmos 2219 Rocket 3.9 01:23:12 24° NW 01:23:12 24° NW 01:26:46 10° N
Resurs 1-4 Rocket 3.9 01:19:04 10° NE 01:22:17 24° ENE 01:22:17 24° ENE
Cosmos 2278 Rocket 3.2 01:28:48 10° NNW 01:32:30 42° N 01:32:30 42° N
ADEOS II 3.7 01:43:21 10° NE 01:47:24 26° E 01:47:24 26° E
ATLAS 2AS CENTAUR R/B 3.0 01:49:36 61° ESE 01:49:36 61° ESE 01:56:36 10° NE
Nadezhda 4 Rocket 4.2 01:50:48 67° NNE 01:50:48 67° NNE 01:56:01 10° N
Cosmos 1943 Rocket 2.7 01:46:56 10° NNW 01:51:51 56° NNE 01:51:51 56° NNE
SL-16 R/B 3.4 01:54:58 34° E 01:54:58 34° E 01:59:32 10° NE
ATLAS 5 CENTAUR R/B 3.6 01:51:24 10° NNW 01:55:57 33° NE 02:01:25 10° ESE
Meteor 1-27 Rocket 4.1 02:01:01 63° NE 02:01:01 63° NE 02:05:49 10° NNE
CZ-2C R/B 3.5 02:00:14 43° E 02:00:42 44° ENE 02:05:43 10° N
SL-16 R/B 3.9 02:00:25 15° ESE 02:04:45 34° ENE 02:10:16 10° N
ALOS 4.2 02:06:35 10° NE 02:10:01 20° E 02:10:18 20° E
NPP 3.9 02:07:34 10° NNE 02:12:10 65° NNE 02:12:10 65° NNE
USA 215 3.4 02:13:59 10° NE 02:20:25 62° NW 02:21:28 55° WNW
Meteor 1-11 Rocket 4.4 02:21:13 10° NNW 02:25:03 41° NW 02:25:03 41° NW
NOSS 3-1 (C) 4.5 02:22:19 10° NNW 02:29:46 64° NE 02:38:42 10° SE
ATLAS 3B R/B 4.2 02:29:05 10° NNW 02:36:24 40° NE 02:43:38 10° ESE
Cosmos 2026 Rocket 3.9 02:37:39 71° SW 02:38:09 76° W 02:44:34 10° N
MSX 3.8 02:32:50 10° N 02:38:33 65° WNW 02:38:35 65° WNW
Cosmos 1371 Rocket 3.9 02:34:49 10° NNW 02:39:56 84° NNW 02:39:56 84° NNW
Cosmos 1328 Rocket 4.1 02:41:11 55° ENE 02:41:11 55° ENE 02:45:15 10° NNE
Cosmos 1626 4.1 02:42:31 25° NE 02:42:31 25° NE 02:44:21 10° NNE
Cosmos 2237 Rocket 3.3 02:41:27 30° WNW 02:41:28 30° WNW 02:46:26 10° N
Cosmos 1092 Rocket 3.8 02:42:40 67° WSW 02:43:02 69° W 02:49:12 10° N
Cosmos 2344 4.3 02:35:42 10° NW 02:44:34 60° WSW 02:57:00 10° SSE
IDEFIX/ARIANE 42P 3.2 02:40:15 10° N 02:44:41 43° NW 02:44:41 43° NW
Cosmos 2369 Rocket 3.7 02:40:39 10° N 02:45:44 34° ENE 02:50:47 10° ESE
Cosmos 1151 Rocket 4.2 02:47:21 35° NNW 02:47:21 35° NNW 02:50:12 10° N
Cosmos 921 Rocket 3.7 02:48:29 48° NNW 02:48:29 48° NNW 02:51:52 10° N
CZ-2C R/B 3.0 02:45:58 10° N 02:51:22 83° WNW 02:51:58 71° SW
Cosmos 1975 3.7 02:47:36 10° N 02:50:23 44° N 02:50:23 44° N
CZ-2D R/B 2.4 02:46:24 10° N 02:51:39 53° WNW 02:51:40 53° WNW
USA 267 3.4 02:46:35 10° ESE 02:53:02 71° NE 02:59:32 10° NW
Cosmos 2297 4.4 02:48:52 10° NNW 02:54:31 54° ENE 03:00:07 10° SE
Cosmos 1633 Rocket 3.3 02:50:26 10° N 02:54:46 65° E 02:55:02 63° ESE
AQUA 3.6 02:51:55 10° NNE 02:56:41 83° WNW 02:56:42 83° W
Cosmos 494 Rocket 3.8 03:02:00 71° SW 03:02:33 84° WNW 03:07:41 10° NNE
Resurs 1-4 Rocket 2.8 02:58:26 10° N 03:03:18 38° WNW 03:03:21 38° WNW
Meteor 2-4 Rocket 3.6 03:04:17 61° SW 03:05:05 71° W 03:10:43 10° N
Cosmos 1766 4.4 03:02:41 10° N 03:06:10 39° ENE 03:07:18 30° ESE
Cosmos 1943 4.1 03:03:45 26° SSE 03:06:21 42° ESE 03:11:41 10° NE
Delta 2 Rocket 4.1 03:10:33 47° SSE 03:10:33 47° SSE 03:15:02 10° ESE
Cosmos 1048 Rocket 3.9 03:09:34 54° S 03:10:48 85° ESE 03:16:05 10° NNE
UNK 3.8 03:10:15 34° SSE 03:12:13 75° ENE 03:16:50 10° N
FENGYUN 3A 3.7 03:08:04 10° N 03:13:23 58° WNW 03:14:21 51° WSW
Meteor 2-12 Rocket 4.3 03:16:18 40° SSW 03:18:39 81° W 03:24:45 10° N
SEDSat Delta rocket 4.4 03:21:55 33° S 03:22:19 33° S 03:27:46 10° ESE
USA 306 3.9 03:22:03 28° SE 03:22:22 28° SE 03:25:34 10° ENE
CZ-2C R/B 3.7 03:18:25 10° NNE 03:23:15 39° E 03:27:31 12° SSE
IRAS Rocket 4.5 03:18:07 10° N 03:23:34 53° WNW 03:25:03 41° WSW
Cosmos 468 4.5 03:23:29 39° S 03:25:29 83° ESE 03:30:45 10° NNE
ADEOS II 2.7 03:22:37 10° N 03:27:24 37° WNW 03:28:17 35° W
EO 1 Delta rocket 3.9 03:24:04 10° N 03:28:44 68° WNW 03:30:33 39° SSW
Cosmos 1707 3.9 03:27:10 21° SSE 03:29:08 37° E 03:32:34 10° NNE
Cosmos 1842 3.5 03:32:03 35° SSE 03:33:23 62° E 03:37:06 10° NNE
Cosmos 1943 Rocket 4.0 03:31:57 10° WNW 03:33:18 14° WNW 03:33:18 14° WNW
Cosmos 2266 Rocket 3.9 03:32:14 21° S 03:36:26 87° E 03:42:29 10° N
CZ-4 R/B 3.7 03:31:46 10° NNE 03:36:28 83° ESE 03:38:49 29° S
Cosmos 1110 Rocket 4.1 03:32:25 10° NNW 03:37:44 80° ENE 03:43:01 10° SSE
Cosmos 1603 4.4 03:34:08 17° S 03:38:16 49° ESE 03:43:41 10° NE
SL-16 R/B 3.1 03:36:50 28° W 03:38:31 33° WNW 03:43:38 10° N
SL-08 ROCKET BODY 4.4 03:35:18 17° S 03:40:01 80° E 03:46:05 10° N
ATLAS 5 CENTAUR R/B 2.5 03:34:56 10° NW 03:40:02 44° WSW 03:46:10 10° S
YAOGAN 6 3.6 03:37:39 10° NNE 03:40:47 39° E 03:42:44 19° SSE
ATLAS 2AS CENTAUR R/B 3.8 03:37:01 22° W 03:40:48 34° NW 03:47:12 10° NNE
CZ-2C R/B 3.9 03:41:43 23° W 03:41:43 23° W 03:45:19 10° NW
Cosmos 1515 Rocket 3.5 03:40:24 39° SSW 03:41:55 67° W 03:46:20 10° N
GEOS 3 Rocket 3.8 03:37:01 10° SSE 03:42:10 49° WSW 03:47:20 10° NW
S3M 4.0 03:37:48 10° N 03:44:03 89° E 03:50:21 10° S
Cosmos 1452 Rocket 3.4 03:40:53 10° NNW 03:46:10 83° WSW 03:51:23 10° SSE
ALOS 2.9 03:43:04 10° N 03:47:21 38° WNW 03:48:37 32° WSW
SL-16 R/B 3.0 03:45:30 26° SW 03:48:11 39° W 03:53:59 10° NNW
Cosmos 1470 Rocket 3.8 03:45:57 10° NNW 03:50:13 48° W 03:52:03 30° SSW
Envisat 2.9 03:47:08 10° N 03:52:13 82° WNW 03:55:52 19° SSW
NOSS 3-1 (A) 4.1 03:55:16 10° NW 04:02:57 74° WSW 04:12:03 10° SSE
Cosmos 1331 Rocket 3.9 03:57:41 10° NNW 04:02:57 67° WSW 04:08:08 10° S
Cosmos 1674 2.7 04:01:58 34° SW 04:02:57 45° W 04:06:16 10° N
Lacrosse 5 4.4 04:02:01 10° NNW 04:05:52 21° NNE 04:09:43 10° ENE
Meteor 1-13 Rocket 4.3 04:00:08 10° S 04:05:53 84° E 04:11:48 10° N
METEOR-M 4.2 04:02:49 10° N 04:08:03 58° WNW 04:12:13 16° SSW
CZ-3 R/B 4.0 03:50:13 19° SW 04:09:21 43° S 04:18:09 10° ESE
Cosmos 1908 3.1 04:10:02 10° N 04:13:40 80° E 04:17:15 10° S
USA 305 1.5 04:14:01 38° ESE 04:14:01 38° ESE 04:15:35 10° ENE
DMSP B5D2-2 4.1 04:09:37 10° SSE 04:14:48 84° ENE 04:20:01 10° NNW
Cosmos 1626 4.2 04:15:33 11° WNW 04:15:33 11° WNW 04:16:05 10° NW
CRYOSAT 2 4.3 04:11:40 10° N 04:16:32 75° W 04:21:23 10° SSW
Cosmos 1933 Rocket 3.7 04:12:53 10° NNW 04:17:03 47° W 04:21:11 10° SSW
Cosmos 1470 2.8 04:15:09 10° NNW 04:18:51 51° W 04:22:30 10° S
ISS -3.8 04:17:01 24° WSW 04:18:51 79° NW 04:22:12 10° NE
NOAA 11 4.3 04:14:17 10° N 04:19:37 57° WNW 04:24:52 10° SSW
Cosmos 1655 Rocket 4.1 04:15:43 10° SSW 04:21:49 59° W 04:28:00 10° N
USA 276 2.5 04:21:57 19° SSW 04:23:34 44° SE 04:26:21 10° ENE
Cosmos 1656 Rocket 4.4 04:20:13 10° NW 04:24:42 27° WSW 04:29:12 10° SSW
ATLAS 3B R/B 3.1 04:19:51 10° NW 04:27:26 54° WSW 04:34:48 10° S
BREEZE-M DEB (TANK) 3.7 04:25:17 10° W 04:29:23 24° NNW 04:31:32 10° NNE
Cosmos 2369 Rocket 2.8 04:24:43 10° NW 04:29:40 33° WSW 04:34:36 10° SSW
Cosmos 2315 Rocket 4.0 04:23:44 10° NNW 04:29:49 60° W 04:35:54 10° S
Gbstr 26 Del rocket 4.3 04:26:31 10° NW 04:30:11 34° NNE 04:33:37 10° E
Chandra Rocket (1) 3.7 04:32:43 10° SSW 04:34:35 14° SSE 04:37:25 10° SE
Cosmos 614 Rocket 3.9 04:29:32 10° SSW 04:34:37 81° WNW 04:39:48 10° NNE
USA 267 3.9 04:30:40 10° S 04:36:20 32° SW 04:42:02 10° WNW
Cosmos 44 3.5 04:36:17 10° NNW 04:41:12 74° ENE 04:45:46 10° SE
Cosmos 1269 Rocket 4.5 04:37:44 10° S 04:42:57 66° ESE 04:48:10 10° NNE
Cosmos 1707 Rocket 3.5 04:46:07 10° S 04:50:25 81° W 04:54:46 10° N
Cosmos 1943 4.3 04:45:36 10° WSW 04:50:30 29° NW 04:55:25 10° N
Delta 2 Rocket 4.4 04:46:16 10° W 04:50:55 38° SSW 04:55:29 10° SE
USA 307 1.4 04:50:53 12° WSW 04:52:29 45° NW 04:54:34 10° NE
Cosmos 1939 Rocket 3.3 04:50:29 10° NNE 04:54:15 63° E 04:58:02 10° S
USA 306 3.3 04:52:43 10° WSW 04:56:17 38° NW 04:59:34 10° NE
Okean 3 3.9 04:52:11 10° S 04:56:19 67° E 05:00:26 10° NNE
Thor Agena Rocket 4.4 04:52:12 10° N 04:56:35 31° WNW 05:00:59 10° SW
YAOGAN 11 4.3 04:55:13 10° SSE 04:59:44 84° ENE 05:04:18 10° NNW
CZ-2C R/B 3.7 04:56:58 10° NNW 05:01:08 25° WNW 05:05:13 10° WSW
BREEZE-M DEB (TANK) 4.4 05:01:55 10° WNW 05:16:05 42° WSW 05:20:29 10° SSE
